20050704,000003,444709,30.849300,-121.593611,18.185,33.197,0.173,0.131
20050704,000034,444739,30.849348,-121.593690,18.189,33.196,0.179,0.136
20050704,000103,444769,30.849393,-121.593795,18.187,33.201,0.179,0.136
20050704,000134,444800,30.849456,-121.593905,18.183,33.203,0.179,0.136
20050704,000204,444830,30.849535,-121.593976,18.183,33.202,0.179,0.136
20050704,000234,444860,30.849611,-121.594060,18.181,33.202,0.179,0.136
20050704,000304,444889,30.849676,-121.594128,18.183,33.200,0.179,0.136
20050704,000334,444919,30.849746,-121.594188,18.181,33.201,0.179,0.136
20050704,000404,444950,30.849803,-121.594251,18.183,33.199,0.179,0.136
20050704,000434,444980,30.849850,-121.594330,18.183,33.200,0.179,0.136
20050704,000504,445010,30.849893,-121.594421,18.184,33.201,0.179,0.136
20050704,000533,445039,30.849943,-121.594478,18.186,33.199,0.179,0.136
20050704,000604,445069,30.850008,-121.594556,18.188,33.200,0.179,0.136
20050704,000634,445099,30.850070,-121.594615,18.186,33.202,0.179,0.136
20050704,000704,445130,30.850146,-121.594653,18.187,33.202,0.179,0.137
20050704,000735,445160,30.850216,-121.594708,18.187,33.200,0.179,0.137
20050704,000804,445190,30.850296,-121.594773,18.189,33.199,0.179,0.137
20050704,000834,445219,30.850356,-121.594855,18.189,33.202,0.179,0.137
20050704,000905,445251,30.850445,-121.594923,18.187,33.200,0.179,0.137
20050704,000934,445280,30.850506,-121.595001,18.187,33.202,0.179,0.137
20050704,001004,445310,30.850583,-121.595048,18.187,33.200,0.179,0.137
20050704,001034,445340,30.850666,-121.595106,18.189,33.201,0.179,0.137
20050704,001104,445370,30.850753,-121.595153,18.189,33.200,0.179,0.138
20050704,001134,445399,30.850820,-121.595210,18.193,33.199,0.185,0.144
20050704,001204,445429,30.850915,-121.595250,18.192,33.201,0.185,0.145
20050704,001234,445460,30.850990,-121.595311,18.187,33.203,0.179,0.139
20050704,001304,445490,30.851063,-121.595360,18.188,33.200,0.179,0.140
20050704,001334,445520,30.851131,-121.595405,18.192,33.199,0.179,0.139
20050704,001404,445550,30.851201,-121.595451,18.188,33.202,0.179,0.139
20050704,001434,445579,30.851273,-121.595493,18.189,33.199,0.179,0.138
20050704,001504,445609,30.851343,-121.595536,18.189,33.200,0.179,0.137
20050704,001534,445640,30.851423,-121.595590,18.189,33.202,0.179,0.138
20050704,001605,445670,30.851500,-121.595630,18.189,33.201,0.179,0.138
20050704,001634,445700,30.851570,-121.595673,18.188,33.201,0.179,0.139
20050704,001704,445729,30.851651,-121.595723,18.192,33.199,0.179,0.138
20050704,001735,445761,30.851736,-121.595773,18.192,33.202,0.179,0.137
20050704,001804,445790,30.851825,-121.595810,18.191,33.201,0.179,0.136
20050704,001834,445820,30.851905,-121.595870,18.192,33.200,0.179,0.135
20050704,001904,445850,30.851988,-121.595920,18.194,33.201,0.179,0.134
20050704,001934,445880,30.852076,-121.595971,18.192,33.202,0.185,0.140
20050704,002004,445909,30.852168,-121.596028,18.194,33.200,0.179,0.133
20050704,002035,445941,30.852263,-121.596080,18.192,33.201,0.179,0.133
20050704,002104,445970,30.852358,-121.596125,18.189,33.203,0.179,0.132
20050704,002134,446000,30.852453,-121.596166,18.189,33.201,0.179,0.132
20050704,002204,446030,30.852558,-121.596188,18.188,33.203,0.179,0.132
20050704,002234,446060,30.852666,-121.596238,18.187,33.202,0.179,0.132
20050704,002304,446089,30.852765,-121.596298,18.189,33.200,0.179,0.132
20050704,002334,446120,30.852866,-121.596358,18.189,33.202,0.179,0.132
20050704,002404,446150,30.852970,-121.596441,18.185,33.203,0.185,0.138
20050704,002434,446180,30.853076,-121.596531,18.185,33.201,0.185,0.138
20050704,002504,446210,30.853178,-121.596615,18.184,33.203,0.185,0.137
20050704,002534,446239,30.853296,-121.596683,18.187,33.199,0.185,0.137
20050704,002604,446269,30.853385,-121.596731,18.185,33.201,0.179,0.131
20050704,002634,446300,30.853476,-121.596768,18.183,33.202,0.179,0.131
20050704,002704,446330,30.853573,-121.596840,18.177,33.206,0.185,0.136
20050704,002735,446360,30.853680,-121.596938,18.177,33.199,0.185,0.137
20050704,002805,446391,30.853791,-121.597031,18.176,33.202,0.185,0.137
20050704,002834,446419,30.853916,-121.597113,18.174,33.202,0.185,0.136
20050704,002905,446451,30.854065,-121.597213,18.172,33.201,0.185,0.136
20050704,002934,446480,30.854203,-121.597280,18.172,33.200,0.185,0.136
20050704,003004,446510,30.854343,-121.597353,18.167,33.204,0.185,0.136
20050704,003034,446540,30.854488,-121.597441,18.164,33.204,0.185,0.135
20050704,003105,446571,30.854618,-121.597543,18.161,33.203,0.185,0.135
20050704,003134,446599,30.854753,-121.597641,18.160,33.201,0.185,0.135
20050704,003204,446630,30.854900,-121.597726,18.159,33.203,0.185,0.135
20050704,003234,446660,30.855038,-121.597830,18.156,33.204,0.185,0.135
20050704,003304,446690,30.855155,-121.597925,18.155,33.200,0.185,0.135
20050704,003334,446720,30.855260,-121.598010,18.158,33.201,0.190,0.141
20050704,003404,446749,30.855381,-121.598103,18.162,33.198,0.185,0.135
20050704,003434,446779,30.855500,-121.598193,18.162,33.199,0.190,0.141
20050704,003504,446810,30.855626,-121.598303,18.161,33.201,0.185,0.136
20050704,003535,446840,30.855751,-121.598413,18.154,33.204,0.185,0.136
20050704,003604,446870,30.855891,-121.598495,18.155,33.201,0.185,0.137
20050704,003634,446900,30.856025,-121.598601,18.163,33.197,0.185,0.137
20050704,003704,446929,30.856176,-121.598690,18.162,33.200,0.185,0.136
20050704,003735,446961,30.856315,-121.598765,18.166,33.197,0.185,0.135
20050704,003804,446990,30.856458,-121.598846,18.160,33.202,0.185,0.135
20050704,003835,447020,30.856598,-121.598913,18.157,33.202,0.185,0.134
20050704,003904,447050,30.856738,-121.598993,18.160,33.199,0.185,0.133
20050704,003935,447081,30.856893,-121.599060,18.160,33.204,0.185,0.132
20050704,004004,447109,30.857040,-121.599160,18.155,33.202,0.185,0.132
20050704,004034,447140,30.857188,-121.599251,18.153,33.202,0.185,0.132
20050704,004104,447170,30.857326,-121.599366,18.155,33.199,0.185,0.131
20050704,004134,447200,30.857455,-121.599510,18.154,33.201,0.185,0.131
20050704,004204,447230,30.857541,-121.599710,18.153,33.199,0.185,0.131
20050704,004234,447259,30.857631,-121.599913,18.155,33.199,0.185,0.131
20050704,004305,447291,30.857721,-121.600143,18.158,33.199,0.190,0.137
20050704,004334,447320,30.857800,-121.600353,18.162,33.197,0.185,0.132
20050704,004405,447350,30.857900,-121.600565,18.164,33.200,0.185,0.132
20050704,004435,447381,30.857993,-121.600778,18.166,33.199,0.190,0.138
20050704,004504,447410,30.858075,-121.600978,18.163,33.201,0.185,0.132
20050704,004535,447441,30.858161,-121.601201,18.166,33.199,0.185,0.132
20050704,004604,447470,30.858288,-121.601373,18.166,33.201,0.185,0.132
20050704,004635,447500,30.858400,-121.601565,18.167,33.201,0.179,0.126
20050704,004704,447530,30.858516,-121.601745,18.166,33.205,0.190,0.137
20050704,004735,447561,30.858625,-121.601938,18.166,33.201,0.185,0.132
20050704,004805,447591,30.858731,-121.602128,18.168,33.200,0.185,0.132
20050704,004835,447621,30.858831,-121.602335,18.170,33.200,0.185,0.133
20050704,004905,447651,30.858920,-121.602523,18.168,33.202,0.185,0.133
20050704,004934,447680,30.858986,-121.602660,18.166,33.204,0.185,0.133
20050704,005005,447710,30.859043,-121.602765,18.166,33.204,0.185,0.133
20050704,005034,447740,30.859086,-121.602868,18.164,33.202,0.185,0.133
20050704,005105,447771,30.859123,-121.602958,18.160,33.203,0.179,0.128
20050704,005135,447801,30.859146,-121.603048,18.161,33.200,0.190,0.139
20050704,005205,447830,30.859168,-121.603140,18.164,33.199,0.185,0.133
20050704,005234,447860,30.859175,-121.603228,18.161,33.201,0.185,0.133
20050704,005305,447891,30.859176,-121.603320,18.157,33.203,0.185,0.133
20050704,005334,447919,30.859258,-121.603476,18.156,33.202,0.185,0.133
20050704,005405,447951,30.859388,-121.603670,18.155,33.202,0.185,0.132
20050704,005435,447981,30.859513,-121.603820,18.153,33.201,0.185,0.132
20050704,005505,448010,30.859608,-121.603971,18.155,33.200,0.185,0.132
20050704,005535,448040,30.859698,-121.604148,18.155,33.199,0.185,0.132
20050704,005605,448071,30.859780,-121.604285,18.153,33.203,0.185,0.131
20050704,005635,448101,30.859861,-121.604423,18.149,33.204,0.185,0.131
20050704,005705,448131,30.859945,-121.604570,18.150,33.200,0.185,0.131
20050704,005735,448161,30.860025,-121.604710,18.149,33.201,0.190,0.136
20050704,005805,448190,30.860110,-121.604855,18.151,33.199,0.185,0.130
20050704,005835,448221,30.860208,-121.604975,18.149,33.201,0.190,0.136
20050704,005905,448251,30.860285,-121.605135,18.147,33.199,0.185,0.130
20050704,005935,448281,30.860375,-121.605295,18.148,33.199,0.185,0.130
20050704,010005,448311,30.860478,-121.605440,18.149,33.204,0.185,0.130
20050704,010035,448340,30.860570,-121.605606,18.153,33.199,0.190,0.136
20050704,010105,448370,30.860673,-121.605750,18.152,33.199,0.185,0.130
20050704,010135,448401,30.860756,-121.605915,18.149,33.203,0.185,0.130
20050704,010205,448431,30.860855,-121.606081,18.153,33.199,0.185,0.130
20050704,010236,448461,30.860970,-121.606245,18.153,33.200,0.190,0.135
20050704,010305,448491,30.861090,-121.606391,18.153,33.201,0.190,0.135
20050704,010335,448520,30.861206,-121.606558,18.153,33.202,0.190,0.134
20050704,010405,448550,30.861306,-121.606725,18.156,33.200,0.190,0.134
20050704,010435,448581,30.861398,-121.606836,18.156,33.204,0.190,0.134
20050704,010505,448611,30.861466,-121.606923,18.156,33.199,0.190,0.134
20050704,010535,448641,30.861548,-121.607076,18.155,33.202,0.190,0.133
20050704,010605,448671,30.861670,-121.607245,18.157,33.201,0.185,0.128
20050704,010635,448700,30.861723,-121.607355,18.157,33.201,0.190,0.133
20050704,010705,448731,30.861748,-121.607465,18.160,33.199,0.190,0.133
20050704,010735,448761,30.861788,-121.607578,18.157,33.201,0.190,0.133
20050704,010805,448791,30.861841,-121.607703,18.159,33.197,0.190,0.132
20050704,010835,448821,30.861918,-121.607805,18.165,33.199,0.190,0.132
20050704,010905,448850,30.861985,-121.607936,18.166,33.201,0.196,0.138
20050704,010935,448880,30.862015,-121.608105,18.166,33.200,0.190,0.132
20050704,011005,448911,30.862031,-121.608298,18.163,33.205,0.190,0.132
20050704,011035,448941,30.861936,-121.608508,18.164,33.200,0.190,0.132
20050704,011105,448971,30.861778,-121.608723,18.168,33.199,0.190,0.132
20050704,011135,449001,30.861573,-121.608955,18.170,33.199,0.190,0.132
20050704,011205,449030,30.861371,-121.609170,18.167,33.204,0.190,0.133
20050704,011235,449060,30.861221,-121.609340,18.163,33.205,0.190,0.133
20050704,011305,449091,30.861055,-121.609501,18.162,33.203,0.190,0.133
20050704,011335,449121,30.860848,-121.609888,18.166,33.199,0.190,0.133
20050704,011405,449151,30.860511,-121.610440,18.164,33.200,0.190,0.133
20050704,011436,449182,30.860103,-121.611085,18.161,33.202,0.185,0.127
20050704,011505,449210,30.859655,-121.611746,18.157,33.205,0.190,0.133
20050704,011536,449242,30.859176,-121.612515,18.156,33.204,0.185,0.127
20050704,011605,449271,30.858551,-121.613516,18.153,33.203,0.185,0.127
20050704,011635,449301,30.857801,-121.614750,18.153,33.204,0.196,0.138
20050704,011705,449331,30.857021,-121.616056,18.150,33.203,0.190,0.133
20050704,011735,449360,30.856235,-121.617411,18.150,33.203,0.196,0.138
20050704,011805,449390,30.855441,-121.618781,18.149,33.202,0.196,0.138
20050704,011835,449421,30.854670,-121.620160,18.152,33.199,0.196,0.138
20050704,011905,449451,30.853871,-121.621520,18.154,33.200,0.196,0.137
20050704,011935,449481,30.853055,-121.622883,18.156,33.201,0.190,0.132
20050704,012005,449511,30.852255,-121.624273,18.159,33.201,0.190,0.132
20050704,012035,449540,30.851438,-121.625651,18.164,33.197,0.201,0.142
20050704,012105,449571,30.850653,-121.627051,18.172,33.197,0.196,0.137
20050704,012136,449601,30.849858,-121.628438,18.171,33.200,0.190,0.131
20050704,012205,449631,30.849045,-121.629816,18.173,33.201,0.190,0.131
20050704,012235,449661,30.848220,-121.631198,18.172,33.202,0.190,0.131
20050704,012305,449690,30.847423,-121.632595,18.174,33.201,0.196,0.136
20050704,012335,449720,30.846615,-121.633998,18.177,33.198,0.196,0.136
20050704,012405,449751,30.845781,-121.635371,18.181,33.200,0.196,0.136
20050704,012436,449781,30.844971,-121.636745,18.186,33.199,0.201,0.141
20050704,012505,449811,30.844158,-121.638135,18.186,33.200,0.201,0.141
20050704,012535,449841,30.843341,-121.639526,18.188,33.200,0.201,0.141
20050704,012605,449870,30.842525,-121.640913,18.188,33.203,0.201,0.141
20050704,012635,449900,30.841695,-121.642268,18.187,33.202,0.201,0.140
20050704,012705,449931,30.840860,-121.643631,18.182,33.202,0.201,0.140
20050704,012735,449961,30.840078,-121.645030,18.183,33.200,0.196,0.135
20050704,012805,449991,30.839218,-121.646386,18.187,33.199,0.201,0.140
20050704,012835,450021,30.838435,-121.647778,18.192,33.199,0.201,0.140
20050704,012906,450052,30.837581,-121.649196,18.194,33.199,0.201,0.140
20050704,012935,450081,30.836768,-121.650515,18.195,33.202,0.196,0.135
20050704,013005,450111,30.835951,-121.651880,18.195,33.202,0.201,0.141
20050704,013036,450141,30.835093,-121.653295,18.198,33.201,0.201,0.141
20050704,013105,450171,30.834280,-121.654621,18.200,33.200,0.196,0.135
20050704,013136,450202,30.833418,-121.656048,18.201,33.202,0.201,0.140
20050704,013205,450230,30.832613,-121.657376,18.203,33.201,0.201,0.140
20050704,013235,450261,30.831775,-121.658746,18.209,33.200,0.201,0.140
20050704,013306,450291,30.830938,-121.660125,18.212,33.201,0.201,0.141
20050704,013335,450321,30.830115,-121.661518,18.214,33.204,0.201,0.141
20050704,013406,450352,30.829225,-121.662923,18.213,33.203,0.196,0.136
20050704,013435,450380,30.828413,-121.664256,18.215,33.204,0.213,0.152
20050704,013505,450410,30.827575,-121.665650,18.216,33.203,0.201,0.141
20050704,013535,450441,30.826725,-121.667028,18.219,33.202,0.201,0.141
20050704,013605,450471,30.825890,-121.668408,18.221,33.202,0.201,0.140
20050704,013635,450501,30.825043,-121.669771,18.222,33.204,0.201,0.140
20050704,013705,450530,30.824208,-121.671155,18.218,33.205,0.201,0.140
20050704,013735,450560,30.823360,-121.672525,18.217,33.204,0.201,0.139
20050704,013805,450591,30.822528,-121.673906,18.216,33.205,0.207,0.144
20050704,013835,450621,30.821686,-121.675290,18.214,33.203,0.207,0.144
20050704,013905,450651,30.820838,-121.676658,18.216,33.204,0.207,0.144
20050704,013935,450681,30.820000,-121.678043,18.212,33.206,0.201,0.138
20050704,014005,450710,30.819150,-121.679428,18.213,33.204,0.207,0.143
20050704,014035,450740,30.818310,-121.680820,18.218,33.203,0.201,0.138
20050704,014105,450771,30.817470,-121.682211,18.218,33.203,0.201,0.138
20050704,014135,450801,30.816626,-121.683611,18.220,33.203,0.201,0.138
20050704,014205,450831,30.815778,-121.684988,18.222,33.202,0.201,0.138
20050704,014235,450861,30.814931,-121.686370,18.223,33.204,0.201,0.138
20050704,014305,450890,30.814071,-121.687715,18.222,33.204,0.207,0.143
20050704,014335,450921,30.813228,-121.689106,18.222,33.205,0.207,0.143
20050704,014405,450951,30.812366,-121.690486,18.219,33.206,0.213,0.149
20050704,014435,450981,30.811506,-121.691860,18.218,33.206,0.201,0.138
20050704,014505,451011,30.810643,-121.693245,18.220,33.203,0.207,0.143
20050704,014535,451040,30.809790,-121.694638,18.220,33.206,0.207,0.143
20050704,014605,451070,30.808913,-121.696006,18.221,33.203,0.207,0.143
20050704,014635,451101,30.808065,-121.697388,18.219,33.206,0.207,0.143
20050704,014705,451131,30.807223,-121.698780,18.218,33.206,0.207,0.143
20050704,014735,451161,30.806370,-121.700150,18.219,33.205,0.213,0.148
20050704,014805,451191,30.805483,-121.701523,18.220,33.205,0.207,0.143
20050704,014836,451222,30.804608,-121.702953,18.216,33.206,0.213,0.148
20050704,014905,451250,30.803778,-121.704288,18.215,33.207,0.213,0.148
20050704,014935,451281,30.802905,-121.705655,18.213,33.208,0.213,0.148
20050704,015005,451311,30.802043,-121.707023,18.211,33.207,0.218,0.153
20050704,015035,451341,30.801173,-121.708385,18.213,33.206,0.213,0.148
20050704,015105,451371,30.800328,-121.709783,18.216,33.203,0.213,0.148
20050704,015135,451400,30.799440,-121.711175,18.219,33.204,0.213,0.148
20050704,015205,451431,30.798545,-121.712568,18.220,33.206,0.213,0.148
20050704,015235,451461,30.797665,-121.713983,18.223,33.203,0.207,0.143
20050704,015305,451491,30.796780,-121.715375,18.225,33.208,0.213,0.148
20050704,015335,451521,30.795893,-121.716773,18.223,33.207,0.213,0.148
20050704,015405,451550,30.795018,-121.718181,18.220,33.208,0.213,0.148
20050704,015436,451582,30.794115,-121.719625,18.218,33.208,0.213,0.148
20050704,015505,451611,30.793255,-121.720960,18.218,33.208,0.218,0.153
20050704,015536,451641,30.792385,-121.722371,18.217,33.207,0.207,0.142
20050704,015605,451671,30.791498,-121.723783,18.219,33.206,0.207,0.142
20050704,015635,451701,30.790636,-121.725213,18.220,33.206,0.207,0.141
20050704,015705,451730,30.789748,-121.726631,18.218,33.206,0.207,0.141
20050704,015735,451760,30.788873,-121.728056,18.210,33.211,0.207,0.141
20050704,015805,451791,30.787986,-121.729471,18.210,33.208,0.207,0.141
20050704,015836,451821,30.787121,-121.730900,18.212,33.204,0.213,0.147
20050704,015905,451851,30.786236,-121.732323,18.211,33.207,0.213,0.147
20050704,015935,451880,30.785366,-121.733760,18.208,33.209,0.213,0.146
20050704,020005,451910,30.784485,-121.735176,18.204,33.209,0.213,0.146
20050704,020035,451941,30.783626,-121.736608,18.201,33.211,0.218,0.152
20050704,020106,451971,30.782735,-121.738033,18.201,33.208,0.213,0.146
20050704,020135,452001,30.781856,-121.739466,18.198,33.208,0.218,0.151
20050704,020205,452031,30.780986,-121.740906,18.196,33.209,0.213,0.146
20050704,020235,452060,30.780111,-121.742336,18.195,33.207,0.218,0.151
20050704,020305,452090,30.779226,-121.743760,18.194,33.209,0.213,0.146
20050704,020335,452121,30.778348,-121.745193,18.189,33.210,0.224,0.157
20050704,020405,452151,30.777475,-121.746635,18.185,33.211,0.213,0.146
20050704,020436,452182,30.776553,-121.748115,18.185,33.207,0.207,0.140
20050704,020505,452211,30.775711,-121.749513,18.187,33.206,0.201,0.135
20050704,020536,452242,30.774793,-121.750981,18.188,33.206,0.201,0.135
20050704,020605,452271,30.773961,-121.752370,18.187,33.206,0.196,0.130
20050704,020636,452301,30.773076,-121.753801,18.188,33.207,0.196,0.130
20050704,020705,452331,30.772178,-121.755233,18.189,33.207,0.196,0.130
20050704,020736,452362,30.771301,-121.756726,18.187,33.209,0.196,0.130
20050704,020805,452390,30.770430,-121.758108,18.190,33.206,0.190,0.125
20050704,020836,452422,30.769551,-121.759535,18.192,33.205,0.190,0.125
20050704,020906,452452,30.768631,-121.761016,18.192,33.205,0.190,0.125
20050704,020935,452481,30.767773,-121.762400,18.192,33.203,0.190,0.125
20050704,021005,452511,30.766861,-121.763835,18.187,33.208,0.190,0.125
20050704,021036,452542,30.765946,-121.765318,18.183,33.207,0.190,0.125
20050704,021105,452570,30.765091,-121.766690,18.179,33.209,0.196,0.130
20050704,021135,452600,30.764223,-121.768123,18.175,33.207,0.185,0.120
20050704,021206,452632,30.763316,-121.769603,18.173,33.206,0.190,0.125
20050704,021235,452661,30.762458,-121.770970,18.172,33.209,0.190,0.125
20050704,021305,452691,30.761563,-121.772390,18.173,33.204,0.190,0.125
20050704,021335,452721,30.760678,-121.773808,18.173,33.201,0.190,0.125
20050704,021406,452752,30.759756,-121.775270,18.174,33.200,0.190,0.125
20050704,021435,452781,30.758930,-121.776683,18.172,33.202,0.190,0.125
20050704,021506,452811,30.758010,-121.778160,18.170,33.203,0.190,0.124
20050704,021535,452841,30.757140,-121.779560,18.162,33.206,0.190,0.124
20050704,021606,452872,30.756228,-121.781068,18.161,33.203,0.196,0.129
20050704,021636,452902,30.755330,-121.782500,18.158,33.202,0.190,0.124
20050704,021706,452932,30.754453,-121.783961,18.159,33.202,0.190,0.124
20050704,021735,452961,30.753598,-121.785363,18.159,33.201,0.190,0.124
20050704,021806,452991,30.752711,-121.786883,18.158,33.205,0.190,0.124
20050704,021836,453021,30.751821,-121.788311,18.154,33.203,0.190,0.124
20050704,021905,453051,30.750953,-121.789706,18.154,33.202,0.190,0.124
20050704,021936,453082,30.750046,-121.791203,18.154,33.202,0.190,0.124
20050704,022006,453112,30.749166,-121.792646,18.151,33.203,0.190,0.124
20050704,022036,453141,30.748303,-121.794101,18.153,33.202,0.185,0.119
20050704,022106,453171,30.747418,-121.795531,18.151,33.203,0.185,0.119
20050704,022136,453202,30.746531,-121.796938,18.151,33.202,0.190,0.124
20050704,022206,453232,30.745666,-121.798368,18.150,33.201,0.185,0.119
20050704,022237,453262,30.744796,-121.799805,18.145,33.203,0.185,0.119
20050704,022306,453292,30.743918,-121.801258,18.145,33.202,0.185,0.119
20050704,022336,453321,30.743041,-121.802710,18.146,33.199,0.185,0.119
20050704,022406,453351,30.742160,-121.804158,18.146,33.201,0.190,0.124
20050704,022436,453382,30.741308,-121.805635,18.144,33.204,0.190,0.124
20050704,022506,453412,30.740501,-121.807121,18.142,33.204,0.179,0.114
20050704,022536,453442,30.739681,-121.808586,18.141,33.202,0.190,0.124
20050704,022606,453472,30.738845,-121.810071,18.145,33.202,0.185,0.118
20050704,022636,453501,30.738051,-121.811513,18.152,33.203,0.190,0.123
20050704,022706,453532,30.737195,-121.813050,18.156,33.200,0.185,0.118
20050704,022736,453562,30.736371,-121.814536,18.156,33.211,0.179,0.113
20050704,022806,453592,30.735545,-121.816031,18.160,33.203,0.179,0.113
20050704,022836,453622,30.734698,-121.817526,18.165,33.202,0.179,0.113
20050704,022906,453651,30.733870,-121.819028,18.164,33.204,0.179,0.113
20050704,022936,453681,30.733036,-121.820520,18.165,33.204,0.179,0.113
20050704,023006,453712,30.732220,-121.822011,18.166,33.205,0.185,0.118
20050704,023036,453742,30.731371,-121.823486,18.166,33.204,0.179,0.113
20050704,023106,453772,30.730575,-121.824981,18.163,33.207,0.185,0.118
20050704,023136,453802,30.729813,-121.826501,18.160,33.206,0.179,0.113
20050704,023206,453831,30.729038,-121.828005,18.158,33.205,0.179,0.113
20050704,023236,453861,30.728268,-121.829525,18.160,33.201,0.179,0.113
20050704,023307,453892,30.727490,-121.831045,18.160,33.202,0.179,0.113
20050704,023336,453922,30.726695,-121.832560,18.159,33.203,0.179,0.113
20050704,023406,453952,30.725905,-121.834086,18.163,33.200,0.185,0.118
20050704,023436,453982,30.725140,-121.835626,18.165,33.201,0.185,0.118
20050704,023506,454011,30.724363,-121.837143,18.166,33.202,0.185,0.118
20050704,023536,454042,30.723591,-121.838665,18.166,33.201,0.179,0.113
20050704,023606,454072,30.722828,-121.840193,18.165,33.203,0.185,0.117
20050704,023636,454102,30.722043,-121.841720,18.164,33.205,0.179,0.112
20050704,023706,454132,30.721266,-121.843235,18.167,33.205,0.179,0.112
20050704,023736,454161,30.720518,-121.844766,18.171,33.204,0.185,0.117
20050704,023806,454191,30.719723,-121.846270,18.175,33.204,0.185,0.117
20050704,023836,454222,30.718968,-121.847793,18.180,33.207,0.185,0.117
20050704,023906,454252,30.718173,-121.849288,18.183,33.206,0.179,0.112
20050704,023936,454282,30.717420,-121.850796,18.189,33.206,0.179,0.112
20050704,024006,454312,30.716653,-121.852311,18.194,33.209,0.185,0.117
20050704,024036,454341,30.715875,-121.853831,18.195,33.210,0.185,0.117
20050704,024106,454371,30.715111,-121.855363,18.199,33.210,0.179,0.112
20050704,024136,454402,30.714345,-121.856878,18.203,33.212,0.179,0.112
20050704,024206,454432,30.713585,-121.858410,18.208,33.212,0.179,0.112
20050704,024236,454462,30.712800,-121.859915,18.211,33.211,0.179,0.112
20050704,024306,454491,30.712035,-121.861448,18.214,33.214,0.179,0.112
20050704,024336,454521,30.711241,-121.862956,18.215,33.215,0.179,0.112
20050704,024406,454552,30.710490,-121.864460,18.214,33.220,0.179,0.112
20050704,024436,454582,30.709720,-121.865963,18.212,33.216,0.179,0.112
20050704,024506,454612,30.708958,-121.867483,18.210,33.213,0.179,0.112
20050704,024536,454642,30.708175,-121.868985,18.210,33.214,0.179,0.112
20050704,024606,454671,30.707391,-121.870490,18.209,33.214,0.179,0.112